User: anonymous
Location: Caltech
(34.1382°N, 118.1253°W)
Time: 22:30:03
(UTC-07:00)
Language:

Aureole 3 Rocket - Orbit

View from above orbital plane
View from above orbital plane
View from above satellite
View from above satellite

Ground track
Ground track

The orbit data is extracted from the following two-line orbital elements,

1 12849U 81094B   14259.41054832  .00000849  00000-0  79748-4 0  9815
2 12849 082.4945 216.9574 0910341 233.8325 117.5264 13.48268947606400
Epoch (UTC): 16 September 2014 09:51:11
Eccentricity: 0.0910341
inclination: 82.4945°
perigee height: 400 km
apogee height: 1757 km
right ascension of ascending node: 216.9574°
argument of perigee: 233.8325°
revolutions per day: 13.48268947
mean anomaly at epoch: 117.5264°
orbit number at epoch: 60640

The dashed part of the orbit path shows where the satellite is in the earth's shadow,  

DLR